STARLINK-11240, 60929

Orbit data source: Space-Track

STARLINK-11240, 60929 is a payload satellite owned by SpaceX/Seattle (US) in LEO that was launched on Sat, 31 Aug 2024 UTC via an FALCON 9 launch vehicle from the Air Force Western Test Range (AFWTR). Payloads include a variety of satellites, spacecraft, and rockets equipped with specific instruments for various scientific and technological missions. These include communications satellites like Starlink; space stations such as the ISS; scientific satellites like the Hubble; Earth observation satellites from companies like Planet Labs, Umbra, and HawkEye 360; GPS; miniature CubeSats for education and research; and military/defense satellites.

Loading next visibility...
STARLINK-11240 details
Identifier
60929, 2024-155F
Orbit
LEO
Last TLE update16 hours ago
Origin
Flag of USSpaceX/Seattle (US)
ManufacturerSpaceX/Seattle
MissionOperational spacecraft
Bus & MotorSTARLINK V2M, Unknown motor
Mass730 kg wet, ~700 kg dry
Launch date (UTC)
2024-08-31 (5 months ago)
Launch vehicle
FALCON 9
Launch site
Air Force Western Test Range (AFWTR)
Object type
Payload
Rocket body
Debris
Shape & HBRUnknown
Radar Cross SectionLarge (>1 m²)

Expand to show TLE details & history

TLE from 16 hours ago
0 STARLINK-11240
1 60929U 24155F   25014.94130984  .00001866  00000-0  20245-4 0  9991
2 60929  53.1585 245.5023 0000984  82.6614 277.4516 15.69722208 22518
Epoch: 2025-01-14T22:35Z
Definitive object data (Epoch: 2025-01-14T22:35:29.17Z)
Latitude0.00002°
Longitude151.98999°
Altitude360.521 km
Speed7.694 km/s
True Right ascension16h 22m 00s
True Declination0° 00' 00"
Sunlit
Object was in daylight at TLE epoch
Visualization TLE readout
Latitude-51.58815°
Longitude38.60972°
Altitude378.198 km
Speed7.682 km/s
Apparent Right ascension05h 59m 37s
Apparent Declination-52° 42' 03"
Sunlit
Object is in daylight
Visualization observer readout
Local Sidereal Time15:38:40
Azimuth230.079° WSW
Elevation-62.881°
Doppler factor1
Orbital elements
Apogee altitude360.616 km
Perigee altitude359.29 km
Semi-major axis6,738.09 km
Eccentricity0.0000984
Inclination53.1585°
RAAN245.5023°
Arg. of periapsis82.6614°
True anomaly277.44042°
Mean anomaly277.4516°
Eccentric anomaly277.44601°
Mean motion3.92408 °/min
BSTAR0.000020245
Orbital period91.74 mins
Loading maneuver chart data...
Loading historical data...
Loading historical data...
Loading historical data...
Loading historical data...
Loading historical data...
Loading historical data...
Loading historical data...

STARLINK-11240 Visibility forecast

Observer location: undefined°, undefined

Span
Click to sort rows by Start time (UTC) header in descending order
Start Az.
Max El. time (UTC)
Max El. Az.
Max El.
End time (UTC)
End Az.
4 mins2025-01-16 01:05:54.109Z283.056° WNW2025-01-16 01:06:54.109Z246.099° WSW33.893°2025-01-16 01:09:54.109Z151.257° SSE
|